Weather History for Ellsworth AFB, SD

Change the Weather History Date:

Saturday, February 16, 2013

  Actual Average Record
Temperature  
Mean Temperature 42 °F -  
Max Temperature 55 °F 39 °F 67 °F (2011)
Min Temperature 29 °F 18 °F -9 °F (2006)
Degree Days  
Heating Degree Days 23    
Moisture  
Dew Point 23 °F    
Average Humidity 48    
Maximum Humidity 65    
Minimum Humidity 31    
Precipitation  
Precipitation 0.00 in - - ()
Sea Level Pressure  
Sea Level Pressure 29.97 in    
Wind  
Wind Speed 11 mph (NW)    
Max Wind Speed 28 mph    
Max Gust Speed 34 mph    
Visibility 10 miles    
Events      
Averages and records for this station are not official NWS values.
T = Trace of Precipitation, MM = Missing Value Source: NWS Daily Summary

Daily Weather History Graph

Daily Weather History Graph

Search for Another Location

Airport:

Trip Planner

Search our weather history database for the weather conditions in past years. The results will help you decide how hot, cold, wet, or windy it might be!

Date:

Astronomy

Feb. 16, 2013 Rise Set
Actual Time 6:49 AM MST 5:23 PM MST
Civil Twilight 6:20 AM MST 5:53 PM MST
Nautical Twilight 5:46 AM MST 6:27 PM MST
Astronomical Twilight 5:13 AM MST 7:00 PM MST
Moon 9:48 AM MST (2/16) No Moon Set
Length of Visible Light 11h 33m
Length of Day
10h 33m
Waxing Crescent, 40% of the Moon is Illuminated
Feb 16
Waxing Crescent
Feb 17
First Quarter
Feb 25
Full
Mar 4
Last Quarter
Mar 11
New

Hourly Weather History & Observations

Time (MST) Temp. Windchill Dew Point Humidity Pressure Visibility Wind Dir Wind Speed Gust Speed Precip Events Conditions
12:55 AM 29.5 °F - 13.1 °F 51% 30.12 in 10.0 mi Calm Calm - N/A   Overcast
1:55 AM 30.6 °F - 15.6 °F 54% 30.08 in 10.0 mi Calm Calm - N/A   Mostly Cloudy
2:55 AM 29.7 °F - 17.2 °F 60% 30.06 in 10.0 mi Calm Calm - N/A   Overcast
3:55 AM 42.3 °F 32.8 °F 24.1 °F 49% 30.00 in 10.0 mi NNW 23.0 mph 29.9 mph N/A   Partly Cloudy
4:55 AM 41.5 °F 32.1 °F 24.1 °F 50% 30.00 in 10.0 mi NW 21.9 mph 28.8 mph N/A   Clear
5:55 AM 41.2 °F 31.9 °F 24.1 °F 51% 30.01 in 10.0 mi NW 20.7 mph - N/A   Clear
6:55 AM 39.6 °F 33.0 °F 24.3 °F 54% 30.04 in 10.0 mi NW 10.4 mph - N/A   Mostly Cloudy
7:55 AM 39.9 °F 33.4 °F 24.4 °F 54% 30.04 in 10.0 mi NNW 10.4 mph - N/A   Mostly Cloudy
8:55 AM 43.9 °F 36.8 °F 24.8 °F 47% 30.03 in 10.0 mi NNW 15.0 mph - N/A   Mostly Cloudy
9:55 AM 47.7 °F - 24.6 °F 41% 30.02 in 10.0 mi NNW 21.9 mph 32.2 mph N/A   Mostly Cloudy
10:55 AM 49.8 °F - 25.0 °F 38% 30.01 in 10.0 mi NNW 23.0 mph - N/A   Overcast
11:55 AM 53.1 °F - 25.2 °F 34% 29.99 in 10.0 mi NNW 24.2 mph 33.4 mph N/A   Clear
12:55 PM 54.1 °F - 25.2 °F 33% 29.96 in 10.0 mi NNW 27.6 mph 34.5 mph N/A   Clear
1:55 PM 55.0 °F - 24.6 °F 31% 29.93 in 10.0 mi NW 26.5 mph 33.4 mph N/A   Clear
2:55 PM 54.5 °F - 25.3 °F 32% 29.93 in 10.0 mi NNW 19.6 mph - N/A   Clear
3:55 PM 53.6 °F - 25.3 °F 34% 29.91 in 10.0 mi NW 18.4 mph - N/A   Clear
4:55 PM 50.5 °F - 25.3 °F 38% 29.91 in 10.0 mi NNW 15.0 mph - N/A   Clear
5:55 PM 47.8 °F - 24.3 °F 40% 29.91 in 10.0 mi North 11.5 mph - N/A   Clear
6:55 PM 43.3 °F 38.6 °F 23.7 °F 46% 29.93 in 10.0 mi NW 8.1 mph - N/A   Clear
7:55 PM 33.4 °F 25.4 °F 21.7 °F 62% 29.93 in 10.0 mi WNW 10.4 mph - N/A   Clear
8:55 PM 32.4 °F 26.9 °F 21.2 °F 63% 29.92 in 10.0 mi West 5.8 mph - N/A   Clear
9:55 PM 32.0 °F 25.6 °F 21.6 °F 65% 29.88 in 10.0 mi West 6.9 mph - N/A   Clear
10:55 PM 33.8 °F 27.0 °F 21.7 °F 61% 29.85 in 10.0 mi WSW 8.1 mph - N/A   Clear
11:55 PM 34.7 °F 27.5 °F 22.8 °F 62% 29.81 in 10.0 mi West 9.2 mph - N/A   Clear